Terminal Aerodrome Forecast
Issued by NWS Wilmington, OH

Current Version | Previous Version | Graphics & Text | Print | Product List | Glossary On
Versions: 1 2 3 4 5 6 7 8 9 10 11 12 13 14 15 16
000
FTUS41 KILN 211723
TAFDAY
TAF
KDAY 211723Z 2118/2218 27007KT P6SM SCT050
     FM220100 24004KT P6SM SCT230
     FM221500 21012G20KT P6SM SCT035=

USA.gov is the U.S. government's official web portal to all federal, state and local government web resources and services.